TimeMST,TemperatureF,Dew PointF,Humidity,Sea Level PressureIn,VisibilityMPH,Wind Direction,Wind SpeedMPH,Gust SpeedMPH,PrecipitationIn,Events,Conditions,WindDirDegrees,DateUTC
12:17 AM,23.0,12.2,63,29.93,10.0,West,47.2,63.3,N/A,,Overcast,270,2013-12-03 07:17:00
12:37 AM,21.2,14.0,74,29.93,10.0,WSW,32.2,47.2,N/A,,Overcast,250,2013-12-03 07:37:00
12:57 AM,21.2,14.0,74,29.93,10.0,North,-9999.0,-,N/A,,Overcast,0,2013-12-03 07:57:00
1:17 AM,21.2,14.0,74,29.92,10.0,North,-9999.0,-,N/A,,Overcast,0,2013-12-03 08:17:00
1:37 AM,21.2,14.0,74,29.92,10.0,North,-9999.0,-,N/A,,Overcast,0,2013-12-03 08:37:00
1:57 AM,21.2,14.0,74,29.92,10.0,North,-9999.0,-,N/A,,Overcast,0,2013-12-03 08:57:00
2:17 AM,21.2,14.0,74,29.91,10.0,North,-9999.0,-,N/A,,Overcast,0,2013-12-03 09:17:00
2:37 AM,19.4,14.0,80,29.90,10.0,North,-9999.0,-,N/A,,Overcast,0,2013-12-03 09:37:00
2:57 AM,19.4,14.0,80,29.90,10.0,North,-9999.0,-,N/A,,Overcast,0,2013-12-03 09:57:00
3:17 AM,19.4,14.0,80,29.88,10.0,North,-9999.0,-,N/A,,Overcast,0,2013-12-03 10:17:00
3:37 AM,19.4,14.0,80,29.86,10.0,North,-9999.0,-,N/A,,Overcast,0,2013-12-03 10:37:00
3:57 AM,19.4,14.0,80,29.86,10.0,North,-9999.0,-,N/A,,Overcast,0,2013-12-03 10:57:00
4:17 AM,19.4,14.0,80,29.85,10.0,North,-9999.0,-,N/A,,Overcast,0,2013-12-03 11:17:00
4:37 AM,19.4,14.0,80,29.84,10.0,North,-9999.0,-,N/A,,Overcast,0,2013-12-03 11:37:00
4:57 AM,21.2,14.0,74,29.85,10.0,North,-9999.0,-,N/A,,Overcast,0,2013-12-03 11:57:00
5:17 AM,21.2,14.0,74,29.84,10.0,North,-9999.0,-,N/A,,Overcast,0,2013-12-03 12:17:00
5:37 AM,21.2,14.0,74,29.83,10.0,North,-9999.0,-,N/A,,Overcast,0,2013-12-03 12:37:00
5:57 AM,21.2,14.0,74,29.82,10.0,North,-9999.0,-,N/A,,Overcast,0,2013-12-03 12:57:00
6:17 AM,21.2,14.0,74,29.82,10.0,North,-9999.0,-,N/A,,Overcast,0,2013-12-03 13:17:00
6:37 AM,21.2,14.0,74,29.82,10.0,North,-9999.0,-,N/A,,Overcast,0,2013-12-03 13:37:00
6:57 AM,21.2,14.0,74,29.82,10.0,North,-9999.0,-,N/A,,Overcast,0,2013-12-03 13:57:00
7:17 AM,21.2,14.0,74,29.82,10.0,North,-9999.0,-,N/A,,Overcast,0,2013-12-03 14:17:00
7:37 AM,21.2,14.0,74,29.81,10.0,North,-9999.0,-,N/A,,Overcast,0,2013-12-03 14:37:00
7:57 AM,21.2,14.0,74,29.81,7.0,North,-9999.0,-,N/A,Snow,Light Snow,0,2013-12-03 14:57:00
8:17 AM,21.2,14.0,74,29.81,7.0,North,-9999.0,-,N/A,,Overcast,0,2013-12-03 15:17:00
8:37 AM,21.2,14.0,74,29.81,10.0,North,-9999.0,-,N/A,,Overcast,0,2013-12-03 15:37:00
8:57 AM,21.2,14.0,74,29.81,10.0,North,-9999.0,-,N/A,,Overcast,0,2013-12-03 15:57:00
9:17 AM,21.2,14.0,74,29.80,2.5,North,-9999.0,-,N/A,Snow,Light Snow,0,2013-12-03 16:17:00
9:37 AM,19.4,15.8,86,29.81,1.8,North,-9999.0,-,N/A,Snow,Light Snow,0,2013-12-03 16:37:00
9:57 AM,19.4,17.6,93,29.81,0.8,North,-9999.0,-,N/A,Snow,Light Snow,0,2013-12-03 16:57:00
10:17 AM,19.4,17.6,93,29.81,0.8,North,-9999.0,-,N/A,Snow,Light Snow,0,2013-12-03 17:17:00
10:37 AM,19.4,17.6,93,29.80,0.5,North,-9999.0,-,N/A,Snow,Light Snow,0,2013-12-03 17:37:00
10:57 AM,19.4,17.6,93,29.79,0.2,North,-9999.0,-,N/A,Snow,Heavy Snow,0,2013-12-03 17:57:00
11:17 AM,19.4,17.6,93,29.78,0.2,North,-9999.0,-,N/A,Snow,Heavy Snow,0,2013-12-03 18:17:00
11:37 AM,19.4,17.6,93,29.76,0.2,WSW,34.5,-,N/A,Snow,Heavy Snow,240,2013-12-03 18:37:00
11:57 AM,21.2,19.4,93,29.75,0.2,WSW,35.7,43.7,N/A,Snow,Heavy Snow,240,2013-12-03 18:57:00
12:17 PM,21.2,19.4,93,29.74,0.2,SW,33.4,40.3,N/A,Snow,Heavy Snow,230,2013-12-03 19:17:00
12:37 PM,21.2,19.4,93,29.73,0.2,WSW,31.1,-,N/A,Snow,Snow,240,2013-12-03 19:37:00
12:57 PM,23.0,21.2,93,29.72,0.2,SW,34.5,43.7,N/A,Snow,Heavy Snow,220,2013-12-03 19:57:00
1:17 PM,23.0,21.2,93,29.70,0.2,SW,39.1,44.9,N/A,Snow,Heavy Snow,220,2013-12-03 20:17:00
1:37 PM,23.0,21.2,93,29.70,0.2,WSW,36.8,-,N/A,Snow,Heavy Snow,240,2013-12-03 20:37:00
1:57 PM,23.0,21.2,93,29.69,0.2,North,-9999.0,-,N/A,Snow,Heavy Snow,0,2013-12-03 20:57:00
2:17 PM,23.0,21.2,93,29.70,0.2,North,-9999.0,-,N/A,Snow,Heavy Snow,0,2013-12-03 21:17:00
2:37 PM,23.0,21.2,93,29.70,0.2,North,-9999.0,-,N/A,Snow,Light Snow,0,2013-12-03 21:37:00
2:57 PM,23.0,21.2,93,29.69,0.2,North,-9999.0,-,N/A,Fog,Light Freezing Fog,0,2013-12-03 21:57:00
3:17 PM,23.0,21.2,93,29.69,0.2,North,-9999.0,-,N/A,Fog,Light Freezing Fog,0,2013-12-03 22:17:00
3:37 PM,23.0,21.2,93,29.69,0.2,North,-9999.0,-,N/A,Fog,Light Freezing Fog,0,2013-12-03 22:37:00
3:57 PM,23.0,21.2,93,29.70,0.2,North,-9999.0,-,N/A,Snow,Light Snow,0,2013-12-03 22:57:00
4:17 PM,23.0,21.2,93,29.70,1.8,North,-9999.0,-,N/A,Snow,Light Snow,0,2013-12-03 23:17:00
4:37 PM,21.2,19.4,93,29.69,0.5,North,-9999.0,-,N/A,Snow,Light Snow,0,2013-12-03 23:37:00
4:57 PM,21.2,19.4,93,29.68,0.5,North,-9999.0,-,N/A,Snow,Snow,0,2013-12-03 23:57:00
5:17 PM,21.2,19.4,93,29.69,0.8,North,-9999.0,-,N/A,Snow,Snow,0,2013-12-04 00:17:00
5:37 PM,21.2,17.6,86,29.68,0.5,North,-9999.0,-,N/A,Snow,Snow,0,2013-12-04 00:37:00
5:57 PM,21.2,19.4,93,29.68,0.2,North,-9999.0,-,N/A,Snow,Light Snow,0,2013-12-04 00:57:00
6:17 PM,19.4,17.6,93,29.68,0.8,North,-9999.0,-,N/A,Snow,Snow,0,2013-12-04 01:17:00
6:37 PM,19.4,17.6,93,29.67,0.2,North,-9999.0,-,N/A,Snow,Heavy Snow,0,2013-12-04 01:37:00
6:57 PM,19.4,17.6,93,29.67,0.2,North,-9999.0,-,N/A,Snow,Heavy Snow,0,2013-12-04 01:57:00
7:17 PM,19.4,17.6,93,29.66,0.2,North,-9999.0,-,N/A,Snow,Heavy Snow,0,2013-12-04 02:17:00
7:37 PM,19.4,17.6,93,29.66,0.2,North,-9999.0,-,N/A,Snow,Heavy Snow,0,2013-12-04 02:37:00
7:57 PM,19.4,17.6,93,29.66,1.5,North,-9999.0,-,N/A,Snow,Light Snow,0,2013-12-04 02:57:00
8:17 PM,19.4,17.6,93,29.65,1.0,North,-9999.0,-,N/A,Snow,Light Snow,0,2013-12-04 03:17:00
8:37 PM,19.4,17.6,93,29.63,0.5,North,-9999.0,-,N/A,Snow,Heavy Snow,0,2013-12-04 03:37:00
8:57 PM,19.4,17.6,93,29.63,0.2,North,-9999.0,-,N/A,Snow,Heavy Snow,0,2013-12-04 03:57:00
9:17 PM,19.4,17.6,93,29.62,0.2,North,-9999.0,-,N/A,Snow,Heavy Snow,0,2013-12-04 04:17:00
9:37 PM,21.2,19.4,93,29.62,0.2,North,-9999.0,-,N/A,Snow,Heavy Snow,0,2013-12-04 04:37:00
9:57 PM,21.2,19.4,93,29.61,0.2,SW,35.7,-,N/A,Snow,Heavy Snow,220,2013-12-04 04:57:00
10:17 PM,21.2,19.4,93,29.61,0.2,SW,29.9,39.1,N/A,Snow,Heavy Snow,220,2013-12-04 05:17:00
10:37 PM,21.2,19.4,93,29.60,0.2,North,-9999.0,-,N/A,Snow,Heavy Snow,0,2013-12-04 05:37:00
10:57 PM,21.2,19.4,93,29.59,0.2,North,-9999.0,-,N/A,Snow,Heavy Snow,0,2013-12-04 05:57:00
11:17 PM,21.2,19.4,93,29.59,0.2,SW,36.8,-,N/A,Snow,Heavy Snow,220,2013-12-04 06:17:00
11:37 PM,21.2,19.4,93,29.59,0.2,North,-9999.0,-,N/A,Snow,Heavy Snow,0,2013-12-04 06:37:00
11:57 PM,21.2,19.4,93,29.58,0.2,North,-9999.0,-,N/A,Snow,Heavy Snow,0,2013-12-04 06:57:00